Florala, AL

2:03 PM CST on January 24, 2017 (GMT -0600)
Florala

Weather History for K0J4 - March, 2012

Change the Weather History Date:

Tuesday, March 27, 2012

  Actual Average (KCEW) Record (KCEW)
Temperature  
Mean Temperature 71 °F -  
Max Temperature 87 °F 72 °F 87 °F (2011)
Min Temperature 55 °F 46 °F 28 °F (2006)
Cooling Degree Days 6    
Growing Degree Days 21 (Base 50)    
Moisture  
Dew Point 54 °F    
Average Humidity 58    
Maximum Humidity 84    
Minimum Humidity 24    
Precipitation  
Precipitation 0.00 in - - ()
Sea Level Pressure  
Sea Level Pressure 30.12 in    
Wind  
Wind Speed 2 mph (South)    
Max Wind Speed 12 mph    
Max Gust Speed -    
Visibility 10 miles    
Events      
Averages and records for this station are not official NWS values.
T = Trace of Precipitation, MM = Missing Value Source: NWS Daily Summary

Daily Weather History Graph

Daily Weather History Graph

Search for Another Location

Airport or City:

Trip Planner

Search our weather history database for the weather conditions in past years. The results will help you decide how hot, cold, wet, or windy it might be!

Date:

Astronomy

Mar. 27, 2012 Rise Set
Actual Time 6:39 AM CDT 7:01 PM CDT
Civil Twilight 6:15 AM CDT 7:25 PM CDT
Nautical Twilight 5:47 AM CDT 7:54 PM CDT
Astronomical Twilight 5:18 AM CDT 8:23 PM CDT
Moon 9:29 AM CDT (3/27) 11:44 PM CDT (3/27)
Length of Visible Light 13h 10m
Length of Day
12h 21m
Waxing Crescent, 22% of the Moon is Illuminated
Mar 27
Waxing Crescent
Mar 30
First Quarter
Apr 6
Full
Apr 13
Last Quarter
Apr 21
New

Hourly Weather History & Observations

Time (CDT) Temp. Heat Index Dew Point Humidity Pressure Visibility Wind Dir Wind Speed Gust Speed Precip Events Conditions
12:58 AM 59.0 °F - 54.0 °F 83% 30.04 in 10.0 mi Calm Calm - N/A   Clear
1:58 AM 59.0 °F - 53.1 °F 81% 30.04 in 10.0 mi Calm Calm - N/A   Clear
2:58 AM 59.0 °F - 53.1 °F 81% 30.04 in 10.0 mi Calm Calm - N/A   Clear
3:58 AM 57.9 °F - 52.0 °F 81% 30.05 in 8.0 mi Calm Calm - N/A   Clear
4:58 AM 57.0 °F - 52.0 °F 83% 30.06 in 9.0 mi Calm Calm - N/A   Clear
5:58 AM 55.9 °F - 51.1 °F 84% 30.07 in 10.0 mi Calm Calm - N/A   Clear
6:58 AM 55.9 °F - 51.1 °F 84% 30.10 in 6.0 mi Calm Calm - N/A   Haze
7:58 AM 64.0 °F - 57.0 °F 78% 30.12 in 8.0 mi Calm Calm - N/A   Clear
8:58 AM 73.9 °F - 57.9 °F 57% 30.13 in 10.0 mi Calm Calm - N/A   Clear
9:58 AM 80.1 °F 80.4 °F 57.0 °F 45% 30.16 in 10.0 mi SE 4.6 mph - N/A   Clear
10:58 AM 82.9 °F 81.9 °F 54.0 °F 37% 30.17 in 10.0 mi South 5.8 mph - N/A   Clear
11:58 AM 84.9 °F - 51.1 °F 31% 30.16 in 10.0 mi SSE 8.1 mph - N/A   Clear
12:58 PM 87.1 °F - 51.1 °F 29% 30.14 in 10.0 mi South 9.2 mph - N/A   Clear
1:58 PM 86.0 °F - 46.0 °F 25% 30.14 in 10.0 mi Calm Calm - N/A   Clear
2:58 PM 87.1 °F - 46.0 °F 24% 30.12 in 10.0 mi Variable 5.8 mph - N/A   Clear
3:58 PM 87.1 °F - 51.1 °F 29% 30.11 in 10.0 mi SSE 9.2 mph - N/A   Clear
4:58 PM 84.9 °F - 52.0 °F 32% 30.11 in 10.0 mi SSW 11.5 mph - N/A   Clear
5:58 PM 81.0 °F 80.4 °F 53.1 °F 38% 30.12 in 10.0 mi SSW 10.4 mph - N/A   Clear
6:58 PM 77.0 °F - 54.0 °F 45% 30.14 in 10.0 mi SSW 9.2 mph - N/A   Clear
7:58 PM 73.0 °F - 55.9 °F 55% 30.16 in 10.0 mi South 4.6 mph - N/A   Clear
8:58 PM 71.1 °F - 57.9 °F 63% 30.17 in 10.0 mi SSW 5.8 mph - N/A   Clear
9:58 PM 66.9 °F - 57.9 °F 73% 30.19 in 10.0 mi SSW 4.6 mph - N/A   Clear
10:58 PM 68.0 °F - 59.0 °F 73% 30.19 in 10.0 mi Calm Calm - N/A   Clear
11:58 PM 63.0 °F - 57.9 °F 84% 30.18 in 10.0 mi Calm Calm - N/A   Clear